Date String (YYYY-MM-DD hh:mm:ss) UTC,Instrument flags,absolute air pressure of the measurement (hPa),sample flow rate (lpm),inlet stack bypass flow (lpm),air temperature of the measurement (°C),ambient temperature measured by the external sensor (°C),aerosol sample conditioner tube jacket temperature (°C),OPC LED temperature (°C),internal box temperature (°C),relative humidity of the measurement (%),span deviation,mass concentration of particles derived from Lorenz-Mie calculation of OPC scattering (μg/m³),mass concentration of particles derived from Lorenz-Mie calculation of OPC scattering (μg/m³),mass concentration of particles derived from Lorenz-Mie calculation of OPC scattering (μg/m³)
DateTimeUTC,F1_M11,P_M11,Q1_M11,Q2_M11,T1_M11,T2_M11,T3_M11,T4_M11,T5_M11,U1_M11,ZSPAN_M11,X2_M11,X0_M11,X1_M11
2024-01-05 10:00:00,SystemResetWarning,0824.4,4.99,000.00,018.9,018.8,000.0,027.1,020.6,17.2,0002.6,0005.50,0009.18,0005.17
2024-01-05 10:01:00,SystemResetWarning,0824.4,5.00,000.00,018.9,018.7,000.0,027.1,020.4,17.2,0002.2,0005.52,0009.04,0005.19
2024-01-05 10:02:00,SystemResetWarning,0824.4,5.01,000.00,018.9,018.6,000.0,027.1,020.3,17.2,0001.8,0005.55,0009.00,0005.20
2024-01-05 10:03:00,SystemResetWarning,0824.4,5.00,000.00,018.9,018.5,000.0,027.1,020.2,17.2,0001.8,0005.57,0009.05,0005.23
2024-01-05 10:04:00,SystemResetWarning,0824.3,5.00,000.00,018.9,018.4,000.0,027.1,020.1,17.2,0001.1,0005.62,0009.10,0005.27
2024-01-05 10:05:00,SystemResetWarning,0824.3,5.00,000.00,018.9,018.3,000.0,027.1,020.1,17.2,0000.4,0005.63,0009.21,0005.29
2024-01-05 10:06:00,SystemResetWarning,0824.3,5.00,000.00,018.8,018.2,000.0,027.1,020.1,17.2,0000.2,0005.65,0009.22,0005.31
2024-01-05 10:07:00,SystemResetWarning,0824.4,4.99,000.00,018.8,018.1,000.0,027.1,020.0,17.2,0000.6,0005.66,0009.22,0005.32
2024-01-05 10:08:00,SystemResetWarning,0824.3,5.00,000.00,018.8,018.1,000.0,027.1,020.0,17.2,0001.7,0005.68,0009.20,0005.34
2024-01-05 10:09:00,SystemResetWarning,0824.4,4.99,000.00,018.8,018.0,000.0,027.1,020.0,17.3,0002.3,0005.73,0009.24,0005.37
2024-01-05 10:10:00,SystemResetWarning,0824.4,5.01,000.00,018.8,018.0,000.0,027.1,020.0,17.3,0002.5,0005.77,0009.05,0005.40
2024-01-05 10:11:00,SystemResetWarning,0824.4,5.01,000.00,018.8,018.0,000.0,027.1,020.0,17.2,0002.0,0005.78,0009.05,0005.41
2024-01-05 10:12:00,SystemResetWarning,0824.4,5.01,000.00,018.8,018.0,000.0,027.1,020.0,17.1,0002.0,0005.76,0008.99,0005.42
2024-01-05 10:13:00,SystemResetWarning,0824.4,5.00,000.00,018.7,018.0,000.0,027.1,020.0,17.0,0002.4,0005.74,0008.98,0005.43
2024-01-05 10:14:00,SystemResetWarning,0824.4,4.99,000.00,018.7,018.0,000.0,027.1,020.0,17.0,0002.4,0005.76,0009.42,0005.44
2024-01-05 10:15:00,SystemResetWarning,0824.4,4.99,000.00,018.7,018.0,000.0,027.1,020.0,17.0,0002.7,0005.78,0009.44,0005.45
2024-01-05 10:16:00,SystemResetWarning,0824.4,4.99,000.00,018.7,018.0,000.0,027.1,020.0,16.9,0002.6,0005.81,0009.38,0005.48
2024-01-05 10:17:00,SystemResetWarning,0824.4,5.00,000.00,018.7,018.0,000.0,027.1,020.0,16.9,0002.7,0005.82,0009.38,0005.48
2024-01-05 10:18:00,SystemResetWarning,0824.3,5.00,000.00,018.7,018.0,000.0,027.1,020.0,16.9,0002.5,0005.86,0009.44,0005.50
2024-01-05 10:19:00,SystemResetWarning,0824.4,5.00,000.00,018.7,018.0,000.0,027.1,020.0,16.9,0002.2,0005.86,0009.52,0005.51
2024-01-05 10:20:00,SystemResetWarning,0824.3,5.01,000.00,018.7,018.0,000.0,027.1,020.0,16.9,0002.3,0005.85,0009.65,0005.51
2024-01-05 10:21:00,SystemResetWarning,0824.4,5.00,000.00,018.7,018.0,000.0,027.1,020.0,16.8,0002.2,0005.85,0010.33,0005.51
2024-01-05 10:22:00,SystemResetWarning,0824.3,5.01,000.00,018.7,018.0,000.0,027.1,020.0,16.7,0002.3,0005.83,0010.29,0005.51
2024-01-05 10:23:00,SystemResetWarning,0824.3,5.00,000.00,018.7,018.0,000.0,027.1,020.0,16.7,0002.4,0005.81,0010.27,0005.49
2024-01-05 10:24:00,SystemResetWarning,0824.3,5.00,000.00,018.7,018.0,000.0,027.1,020.0,16.8,0002.1,0005.81,0010.39,0005.49
2024-01-05 10:25:00,SystemResetWarning,0824.2,5.00,000.00,018.7,018.0,000.0,027.1,020.0,16.8,0002.0,0005.80,0009.85,0005.48
2024-01-05 10:26:00,SystemResetWarning,0824.3,5.00,000.00,018.7,018.0,000.0,027.1,020.0,16.9,0002.0,0005.78,0009.82,0005.46
2024-01-05 10:27:00,SystemResetWarning,0824.3,5.00,000.00,018.7,018.0,000.0,027.1,020.0,16.9,0002.2,0005.73,0009.75,0005.44
2024-01-05 10:28:00,SystemResetWarning,0824.3,5.00,000.00,018.7,018.0,000.0,027.1,020.0,17.0,0002.5,0005.72,0009.74,0005.44
2024-01-05 10:29:00,SystemResetWarning,0824.3,5.00,000.00,018.7,018.0,000.0,027.1,020.0,17.0,0002.7,0005.74,0009.77,0005.45
2024-01-05 10:30:00,SystemResetWarning,0824.2,4.99,000.00,018.7,018.0,000.0,027.1,020.0,17.0,0002.9,0005.74,0009.69,0005.46
2024-01-05 10:31:00,SystemResetWarning,0824.3,4.99,000.00,018.7,018.0,000.0,027.1,020.0,17.1,0003.0,0005.78,0009.53,0005.48
2024-01-05 10:32:00,SystemResetWarning,0824.3,5.00,000.00,018.7,018.0,000.0,027.1,020.0,17.0,0002.7,0005.80,0008.65,0005.53
2024-01-05 10:33:00,SystemResetWarning,0824.3,5.00,000.00,018.7,018.0,000.0,027.1,020.0,17.0,0003.0,0005.91,0008.99,0005.62
2024-01-05 10:34:00,SystemResetWarning,0824.3,5.01,000.00,018.7,018.0,000.0,027.1,020.0,17.0,0003.1,0006.08,0009.69,0005.77
2024-01-05 10:35:00,SystemResetWarning,0824.2,5.00,000.00,018.7,018.0,000.0,027.1,020.0,17.0,0003.1,0006.25,0009.76,0005.94
2024-01-05 10:36:00,SystemResetWarning,0824.2,5.00,000.00,018.7,018.0,000.0,027.1,020.0,17.0,0003.2,0006.42,0009.75,0006.11
2024-01-05 10:37:00,SystemResetWarning,0824.1,5.01,000.00,018.7,018.0,000.0,027.1,020.0,17.0,0003.1,0006.60,0009.95,0006.29
2024-01-05 10:38:00,SystemResetWarning,0824.2,5.00,000.00,018.7,018.0,000.0,027.1,020.0,17.0,0003.1,0006.72,0010.13,0006.42
2024-01-05 10:39:00,SystemResetWarning,0824.2,5.00,000.00,018.7,018.0,000.0,027.1,020.0,17.0,0002.8,0006.84,0010.32,0006.53
2024-01-05 10:40:00,SystemResetWarning,0824.1,5.00,000.00,018.7,018.0,000.0,027.1,020.0,17.0,0002.6,0006.90,0010.36,0006.59
2024-01-05 10:41:00,SystemResetWarning,0824.0,4.99,000.00,018.7,018.0,000.0,027.1,020.0,17.0,0002.4,0006.94,0010.42,0006.62
2024-01-05 10:42:00,SystemResetWarning,0824.0,5.00,000.00,018.7,018.0,000.0,027.1,020.0,17.0,0002.0,0006.91,0010.37,0006.60
2024-01-05 10:43:00,SystemResetWarning,0824.0,4.99,000.00,018.7,018.0,000.0,027.1,020.0,16.9,0001.8,0006.88,0010.71,0006.56
2024-01-05 10:44:00,SystemResetWarning,0824.1,4.99,000.00,018.7,018.0,000.0,027.1,020.0,16.9,0001.4,0006.78,0010.50,0006.49
2024-01-05 10:45:00,SystemResetWarning,0824.0,5.00,000.00,018.7,018.0,000.0,027.1,020.0,16.9,0001.4,0006.68,0009.91,0006.39
2024-01-05 10:46:00,SystemResetWarning,0824.0,5.01,000.00,018.7,018.0,000.0,027.1,020.0,16.9,0001.3,0006.55,0009.83,0006.26
2024-01-05 10:47:00,SystemResetWarning,0824.0,5.01,000.00,018.7,018.0,000.0,027.1,020.0,16.9,0000.9,0006.44,0009.91,0006.14
2024-01-05 10:48:00,SystemResetWarning,0824.0,4.99,000.00,018.7,018.0,000.0,027.1,020.0,16.9,0001.0,0006.38,0010.32,0006.06
2024-01-05 10:49:00,SystemResetWarning,0824.1,4.99,000.00,018.7,018.0,000.0,027.1,020.0,16.8,0000.8,0006.39,0010.79,0006.05
2024-01-05 10:50:00,SystemResetWarning,0824.1,4.99,000.00,018.7,018.0,000.0,027.1,020.0,16.8,0000.8,0006.39,0010.76,0006.04
2024-01-05 10:51:00,SystemResetWarning,0824.2,5.00,000.00,018.7,018.0,000.0,027.1,020.0,16.7,0001.1,0006.38,0010.86,0006.03
2024-01-05 10:52:00,SystemResetWarning,0824.2,5.00,000.00,018.7,017.9,000.0,027.1,020.0,16.6,0001.1,0006.41,0010.95,0006.03
2024-01-05 10:53:00,SystemResetWarning,0824.1,5.01,000.00,018.7,017.9,000.0,027.2,020.0,16.6,0001.3,0006.44,0011.01,0006.06
2024-01-05 10:54:00,SystemResetWarning,0824.2,5.00,000.00,018.7,017.9,000.0,027.1,020.0,16.5,0001.8,0006.46,0010.73,0006.07
2024-01-05 10:55:00,SystemResetWarning,0824.2,4.98,000.00,018.7,018.0,000.0,027.1,020.0,16.5,0002.2,0006.50,0010.64,0006.09
2024-01-05 10:56:00,SystemResetWarning,0824.1,5.00,000.00,018.7,018.0,000.0,027.1,020.0,16.5,0002.0,0006.55,0010.71,0006.12
2024-01-05 10:57:00,SystemResetWarning,0824.1,5.00,000.00,018.7,018.0,000.0,027.1,020.0,16.5,0001.6,0006.57,0010.73,0006.12
2024-01-05 10:58:00,SystemResetWarning,0824.0,5.01,000.00,018.7,018.0,000.0,027.1,020.0,16.5,0001.3,0006.57,0010.58,0006.13
2024-01-05 10:59:00,SystemResetWarning,0824.0,5.00,000.00,018.7,018.0,000.0,027.1,020.0,16.6,0001.4,0006.57,0010.14,0006.14
